Change the Weather History Date:

Wednesday, December 25, 2013

  Actual Average Record
Temperature  
Mean Temperature 55 °F -  
Max Temperature 68 °F 66 °F 73 °F (1996)
Min Temperature 42 °F 44 °F 32 °F (2003)
Degree Days  
Heating Degree Days 10    
Growing Degree Days 5 (Base 50)    
Moisture  
Dew Point 41 °F    
Average Humidity 71    
Maximum Humidity 100    
Minimum Humidity 30    
Precipitation  
Precipitation 0.00 in - - ()
Sea Level Pressure  
Sea Level Pressure 30.12 in    
Wind  
Wind Speed 5 mph ()    
Max Wind Speed 14 mph    
Max Gust Speed -    
Visibility 0.9 miles    
Events Fog    
Averages and records for this station are not official NWS values.
T = Trace of Precipitation, MM = Missing Value Source: Averaged Metar Reports

Daily Weather History Graph

Daily Weather History Graph

Search for Another Location

Airport or City:

Trip Planner

Search our weather history database for the weather conditions in past years. The results will help you decide how hot, cold, wet, or windy it might be!

Date:

Astronomy

Dec. 25, 2013 Rise Set
Actual Time 7:11 AM IST 5:31 PM IST
Civil Twilight 6:45 AM IST 5:57 PM IST
Nautical Twilight 6:16 AM IST 6:26 PM IST
Astronomical Twilight 5:47 AM IST 6:55 PM IST
Moon No Moon Rise 11:54 AM IST (12/25)
Length of Visible Light 11h 11m
Length of Day
10h 19m
Waning Gibbous, 53% of the Moon is Illuminated
Dec 25
Waning Gibbous
Dec 25
Last Quarter
Jan 1
New
Jan 8
First Quarter
Jan 16
Full

Hourly Weather History & Observations

Time (IST) Temp. Windchill Dew Point Humidity Pressure Visibility Wind Dir Wind Speed Gust Speed Precip Events Conditions
12:00 AM 48.2 °F - 48.2 °F 100% 30.15 in 0.2 mi West 3.5 mph - N/A Fog Shallow Fog
12:30 AM 48.2 °F - 48.2 °F 100% 30.15 in 0.2 mi WSW 3.5 mph - N/A Fog Fog
1:00 AM 46.4 °F 45.2 °F 46.4 °F 100% 30.12 in 0.2 mi WSW 3.5 mph - N/A Fog Fog
2:00 AM 46.4 °F 45.2 °F 46.4 °F 100% 30.12 in 0.2 mi West 3.5 mph - N/A Fog Fog
2:30 AM 46.4 °F 45.2 °F 46.4 °F 100% 30.12 in 0.2 mi West 3.5 mph - N/A Fog Fog
3:00 AM 44.6 °F 42.2 °F 44.6 °F 100% 30.12 in 0.2 mi West 4.6 mph - N/A Fog Fog
3:30 AM 44.6 °F 42.2 °F 44.6 °F 100% 30.12 in 0.2 mi West 4.6 mph - N/A Fog Fog
4:00 AM 44.6 °F 42.2 °F 44.6 °F 100% 30.12 in 0.2 mi West 4.6 mph - N/A Fog Fog
4:30 AM 42.8 °F 39.3 °F 42.8 °F 100% 30.12 in 0.2 mi West 5.8 mph - N/A Fog Fog
5:00 AM 42.8 °F 39.3 °F 42.8 °F 100% 30.12 in 0.2 mi West 5.8 mph - N/A Fog Fog
5:30 AM 44.6 °F 41.4 °F 44.6 °F 100% 30.12 in 0.2 mi West 5.8 mph - N/A Fog Fog
6:00 AM 42.8 °F 40.1 °F 42.8 °F 100% 30.12 in 0.2 mi WSW 4.6 mph - N/A Fog Fog
6:30 AM 42.8 °F 40.1 °F 42.8 °F 100% 30.12 in 0.2 mi WSW 4.6 mph - N/A Fog Fog
7:00 AM 42.8 °F 40.1 °F 42.8 °F 100% 30.12 in 0.2 mi WSW 4.6 mph - N/A Fog Fog
7:30 AM 42.8 °F 39.3 °F 42.8 °F 100% 30.15 in 0.2 mi WSW 5.8 mph - N/A Fog Fog
8:00 AM 42.8 °F 39.3 °F 42.8 °F 100% 30.15 in 0.3 mi WSW 5.8 mph - N/A Fog Fog
8:30 AM 44.6 °F 41.4 °F 44.6 °F 100% 30.15 in 0.3 mi WSW 5.8 mph - N/A Fog Fog
9:00 AM 44.6 °F 41.4 °F 44.6 °F 100% 30.18 in 0.3 mi WSW 5.8 mph - N/A Fog Fog
11:30 AM 59.0 °F - 42.8 °F 55% 30.18 in 1.1 mi West 9.2 mph - N/A   Haze
12:00 PM 60.8 °F - 41.0 °F 48% 30.15 in 1.2 mi WNW 9.2 mph - N/A   Haze
12:30 PM 62.6 °F - 41.0 °F 45% 30.15 in 1.2 mi WNW 9.2 mph - N/A   Haze
1:00 PM 64.4 °F - 39.2 °F 40% 30.12 in 1.3 mi NW 11.5 mph - N/A   Haze
1:30 PM 66.2 °F - 39.2 °F 37% 30.12 in 1.6 mi NW 13.8 mph - N/A   Haze
2:00 PM 68.0 °F - 35.6 °F 30% 30.09 in 1.7 mi NW 11.5 mph - N/A   Haze
2:30 PM 68.0 °F - 35.6 °F 30% 30.09 in 1.7 mi NW 13.8 mph - N/A   Haze
3:00 PM 66.2 °F - 33.8 °F 30% 30.09 in 1.7 mi NW 11.5 mph - N/A   Haze
3:30 PM 66.2 °F - 33.8 °F 30% 30.06 in 1.7 mi NW 11.5 mph - N/A   Haze
4:30 PM 66.2 °F - 35.6 °F 32% 30.06 in 1.9 mi NW 10.4 mph - N/A   Haze
5:00 PM 64.4 °F - 35.6 °F 34% 30.06 in 1.9 mi NW 9.2 mph - N/A   Haze
5:30 PM 64.4 °F - 35.6 °F 34% 30.06 in 1.9 mi NW 5.8 mph - N/A   Haze
6:00 PM 62.6 °F - 37.4 °F 39% 30.06 in 1.9 mi WNW 5.8 mph - N/A   Haze
6:30 PM 60.8 °F - 37.4 °F 42% 30.09 in 1.6 mi WNW 5.8 mph - N/A   Haze
7:00 PM 59.0 °F - 39.2 °F 48% 30.09 in 1.4 mi West 4.6 mph - N/A   Haze
7:30 PM 57.2 °F - 39.2 °F 51% 30.09 in 1.1 mi WNW 3.5 mph - N/A   Smoke
8:30 PM 55.4 °F - 42.8 °F 63% 30.12 in 0.9 mi West 4.6 mph - N/A   Smoke
9:00 PM 53.6 °F - 41.0 °F 62% 30.12 in 0.9 mi West 3.5 mph - N/A   Smoke
9:30 PM 53.6 °F - 41.0 °F 62% 30.12 in 0.9 mi SW 3.5 mph - N/A   Smoke
10:00 PM 51.8 °F - 41.0 °F 67% 30.12 in 1.0 mi SW 3.5 mph - N/A   Smoke
10:30 PM 51.8 °F - 41.0 °F 67% 30.12 in 1.0 mi Calm Calm - N/A   Smoke
11:00 PM 50.0 °F - 41.0 °F 71% 30.12 in 1.0 mi West 4.6 mph - N/A   Smoke
11:30 PM 48.2 °F - 41.0 °F 76% 30.12 in 0.6 mi West 3.5 mph - N/A   Mist